Weather History for KCSM - January, 2015

Change the Weather History Date:

Saturday, January 31, 2015

  Actual Average (WUND) Record (WUND)
Temperature  
Mean Temperature 40 °F -  
Max Temperature 42 °F - - (-1)
Min Temperature 39 °F - - (-1)
Degree Days  
Heating Degree Days 24    
Moisture  
Dew Point 38 °F    
Average Humidity 89    
Maximum Humidity 96    
Minimum Humidity 58    
Precipitation  
Precipitation 0.52 in - - ()
Sea Level Pressure  
Sea Level Pressure 30.02 in    
Wind  
Wind Speed 13 mph (SSE)    
Max Wind Speed 22 mph    
Max Gust Speed -    
Visibility 4 miles    
Events Fog , Rain    
Averages and records for this station are not official NWS values.
T = Trace of Precipitation, MM = Missing Value Source: NWS Daily Summary

Daily Weather History Graph

Daily Weather History Graph

Search for Another Location

Airport or City:

Trip Planner

Search our weather history database for the weather conditions in past years. The results will help you decide how hot, cold, wet, or windy it might be!

Date:

Astronomy

Jan. 31, 2015 Rise Set
Actual Time 7:37 AM CST 6:03 PM CST
Civil Twilight 7:10 AM CST 6:30 PM CST
Nautical Twilight 6:39 AM CST 7:01 PM CST
Astronomical Twilight 6:09 AM CST 7:31 PM CST
Moon 3:31 PM CST (1/31) 4:58 AM CST (1/31)
Length of Visible Light 11h 20m
Length of Day
10h 26m
Waxing Gibbous, 90% of the Moon is Illuminated
Jan 31
Waxing Gibbous
Feb 3
Full
Feb 11
Last Quarter
Feb 18
New
Feb 25
First Quarter

Hourly Weather History & Observations

Time (CST) Temp. Windchill Dew Point Humidity Pressure Visibility Wind Dir Wind Speed Gust Speed Precip Events Conditions
12:53 AM 42.1 °F 38.4 °F 28.0 °F 58% 30.26 in 10.0 mi SSE 5.8 mph - N/A   Overcast
1:53 AM 41.0 °F 38.0 °F 30.0 °F 65% 30.24 in 10.0 mi South 4.6 mph - N/A   Overcast
2:53 AM 41.0 °F 36.4 °F 30.9 °F 67% 30.22 in 10.0 mi SE 6.9 mph - 0.00 in   Overcast
3:53 AM 39.9 °F 34.5 °F 33.1 °F 77% 30.19 in 7.0 mi SE 8.1 mph - 0.02 in Rain Light Rain
4:53 AM 39.9 °F 33.4 °F 35.1 °F 83% 30.18 in 8.0 mi SSE 10.4 mph - 0.04 in Rain Light Rain
5:53 AM 39.9 °F 35.1 °F 36.0 °F 86% 30.15 in 8.0 mi SSE 6.9 mph - 0.03 in Rain Light Rain
6:53 AM 39.9 °F 32.9 °F 36.0 °F 86% 30.14 in 9.0 mi SSE 11.5 mph - 0.02 in Rain Light Rain
7:17 AM 39.9 °F 32.1 °F 35.1 °F 83% 30.12 in 7.0 mi SE 13.8 mph - 0.01 in Rain Light Rain
7:53 AM 39.9 °F 32.1 °F 36.0 °F 86% 30.14 in 5.0 mi SSE 13.8 mph - 0.05 in Rain Rain
8:53 AM 39.9 °F 31.8 °F 37.0 °F 89% 30.15 in 4.0 mi SSE 15.0 mph - 0.05 in Rain Light Rain
9:15 AM 39.9 °F 31.1 °F 37.0 °F 89% 30.13 in 3.0 mi SSE 17.3 mph - 0.01 in Rain Light Rain
9:35 AM 39.9 °F 31.4 °F 37.0 °F 89% 30.13 in 3.0 mi SSE 16.1 mph - 0.02 in Rain Light Rain
9:53 AM 39.9 °F 30.0 °F 37.0 °F 89% 30.13 in 3.0 mi SSE 21.9 mph - 0.02 in Rain Light Rain
10:06 AM 39.9 °F 31.1 °F 37.0 °F 89% 30.11 in 4.0 mi SSE 17.3 mph - 0.01 in Rain Light Rain
10:25 AM 39.9 °F 30.2 °F 37.0 °F 89% 30.10 in 4.0 mi SSE 20.7 mph - 0.02 in Rain Light Rain
10:32 AM 39.9 °F 30.5 °F 37.0 °F 89% 30.10 in 4.0 mi SSE 19.6 mph - 0.02 in Rain Light Rain
10:53 AM 39.9 °F 30.2 °F 37.0 °F 89% 30.10 in 6.0 mi SSE 20.7 mph - 0.02 in Rain Light Rain
11:53 AM 39.9 °F 31.1 °F 37.9 °F 93% 30.09 in 3.0 mi South 17.3 mph - 0.02 in Rain Light Rain
12:16 PM 41.0 °F 33.1 °F 37.9 °F 89% 30.05 in 2.0 mi South 15.0 mph - 0.03 in Rain Rain
12:30 PM 41.0 °F 32.2 °F 37.9 °F 89% 30.04 in 4.0 mi South 18.4 mph - 0.04 in Rain Light Rain
12:53 PM 41.0 °F 33.1 °F 37.9 °F 89% 30.03 in 4.0 mi South 15.0 mph - 0.06 in Rain Light Rain
1:53 PM 41.0 °F 32.5 °F 39.0 °F 93% 29.99 in 4.0 mi South 17.3 mph - 0.03 in Rain Light Rain
2:53 PM 41.0 °F 31.6 °F 39.0 °F 93% 29.96 in 3.0 mi South 20.7 mph - 0.06 in Rain Rain
3:06 PM 41.0 °F 31.6 °F 39.0 °F 93% 29.94 in 3.0 mi South 20.7 mph - 0.01 in Rain Light Rain
3:13 PM 41.0 °F 31.9 °F 39.0 °F 93% 29.94 in 4.0 mi South 19.6 mph - 0.01 in Rain Light Rain
3:53 PM 41.0 °F 32.5 °F 39.0 °F 93% 29.94 in 3.0 mi SSE 17.3 mph - 0.03 in Rain Light Rain
4:50 PM 41.0 °F 32.5 °F 39.2 °F 93% 29.91 in 2.5 mi SSE 17.3 mph - 0.02 in Rain Light Rain
4:53 PM 41.0 °F 31.9 °F 39.0 °F 93% 29.92 in 2.5 mi SSE 19.6 mph - 0.02 in Rain Light Rain
5:03 PM 41.0 °F 32.8 °F 39.0 °F 93% 29.91 in 3.0 mi SSE 16.1 mph - 0.00 in Rain Light Rain
5:18 PM 41.0 °F 33.1 °F 39.0 °F 93% 29.90 in 3.0 mi SSE 15.0 mph - 0.00 in Rain Light Rain
5:49 PM 41.0 °F 32.8 °F 39.2 °F 93% 29.90 in 2.0 mi SSE 16.1 mph - 0.00 in Rain Light Rain
5:53 PM 41.0 °F 33.1 °F 39.0 °F 93% 29.91 in 1.8 mi SSE 15.0 mph - 0.01 in Rain Light Rain
6:01 PM 41.0 °F 33.1 °F 39.0 °F 93% 29.90 in 2.5 mi SSE 15.0 mph - 0.00 in Rain Light Rain
6:08 PM 41.0 °F 33.5 °F 39.0 °F 93% 29.90 in 3.0 mi SSE 13.8 mph - 0.00 in Rain Light Rain
6:53 PM 41.0 °F 32.5 °F 39.0 °F 93% 29.91 in 2.5 mi South 17.3 mph - 0.00 in Rain Light Rain
7:11 PM 41.0 °F 32.5 °F 39.0 °F 93% 29.90 in 3.0 mi South 17.3 mph - 0.00 in Rain Light Rain
7:53 PM 41.0 °F 32.5 °F 39.0 °F 93% 29.90 in 4.0 mi South 17.3 mph - 0.01 in Rain Light Rain
8:53 PM 41.0 °F 33.1 °F 39.9 °F 96% 29.89 in 3.0 mi South 15.0 mph - 0.03 in   Overcast
9:00 PM 41.0 °F 33.1 °F 39.9 °F 96% 29.87 in 1.8 mi South 15.0 mph - N/A   Overcast
9:16 PM 41.0 °F 32.8 °F 39.9 °F 96% 29.86 in 0.5 mi South 16.1 mph - N/A Fog Fog
9:53 PM 41.0 °F 32.8 °F 39.9 °F 96% 29.88 in 0.5 mi South 16.1 mph - N/A Fog Fog
10:53 PM 42.1 °F 35.7 °F 41.0 °F 96% 29.87 in 0.2 mi SSW 11.5 mph - 0.00 in Fog , Rain Light Rain
11:53 PM 42.1 °F 37.1 °F 41.0 °F 96% 29.87 in 0.2 mi SW 8.1 mph - 0.00 in Fog Fog